Time,TemperatureF,DewpointF,PressureIn,WindDirection,WindDirectionDegrees,WindSpeedMPH,WindSpeedGustMPH,Humidity,HourlyPrecipIn,Conditions,Clouds,dailyrainin,SoftwareType,DateUTC
2013-02-02 00:00:00,14.7,5.4,29.97,SW,229,2.0,22.0,66,0.00,,,0.00,Wunderground v.1.15,2013-02-02 04:00:00,
2013-02-02 00:10:00,14.5,5.2,29.97,WSW,245,2.0,2.0,66,0.00,,,0.00,Wunderground v.1.15,2013-02-02 04:10:00,
2013-02-02 00:20:00,14.3,5.3,29.97,WSW,240,1.0,22.0,67,0.00,,,0.00,Wunderground v.1.15,2013-02-02 04:20:00,
2013-02-02 00:30:00,14.2,5.2,29.97,West,273,2.0,22.0,67,0.00,,,0.00,Wunderground v.1.15,2013-02-02 04:30:00,
2013-02-02 00:40:00,14.1,5.1,29.97,West,259,2.0,22.0,67,0.00,,,0.00,Wunderground v.1.15,2013-02-02 04:40:00,
2013-02-02 00:50:00,14.0,5.1,29.96,WSW,239,2.0,2.0,67,0.00,,,0.00,Wunderground v.1.15,2013-02-02 04:50:00,
2013-02-02 01:00:00,13.8,5.2,29.96,West,266,1.0,22.0,68,0.00,,,0.00,Wunderground v.1.15,2013-02-02 05:00:00,
2013-02-02 01:10:00,13.7,5.1,29.96,WSW,248,2.0,2.0,68,0.00,,,0.00,Wunderground v.1.15,2013-02-02 05:10:00,
2013-02-02 01:20:00,13.7,5.1,29.96,West,266,2.0,2.0,68,0.00,,,0.00,Wunderground v.1.15,2013-02-02 05:20:00,
2013-02-02 01:30:00,13.7,5.1,29.97,WSW,245,2.0,2.0,68,0.00,,,0.00,Wunderground v.1.15,2013-02-02 05:30:00,
2013-02-02 01:40:00,13.7,5.1,29.97,West,274,2.0,22.0,68,0.00,,,0.00,Wunderground v.1.15,2013-02-02 05:40:00,
2013-02-02 01:50:00,13.4,5.1,29.96,West,275,1.0,22.0,69,0.00,,,0.00,Wunderground v.1.15,2013-02-02 05:50:00,
2013-02-02 02:00:00,13.3,5.0,29.97,WNW,291,2.0,22.0,69,0.00,,,0.00,Wunderground v.1.15,2013-02-02 06:00:00,
2013-02-02 02:10:00,13.1,4.8,29.98,SW,224,2.0,2.0,69,0.00,,,0.00,Wunderground v.1.15,2013-02-02 06:10:00,
2013-02-02 02:20:00,12.9,4.6,29.98,West,273,2.0,22.0,69,0.00,,,0.00,Wunderground v.1.15,2013-02-02 06:20:00,
2013-02-02 02:30:00,12.8,4.9,29.99,WSW,240,2.0,22.0,70,0.00,,,0.00,Wunderground v.1.15,2013-02-02 06:30:00,
2013-02-02 02:40:00,13.0,4.7,30.00,WSW,239,3.0,3.0,69,0.00,,,0.00,Wunderground v.1.15,2013-02-02 06:40:00,
2013-02-02 02:50:00,13.3,5.0,30.00,WSW,249,2.0,22.0,69,0.00,,,0.00,Wunderground v.1.15,2013-02-02 06:50:00,
2013-02-02 03:00:00,13.5,4.9,30.00,West,267,2.0,22.0,68,0.00,,,0.00,Wunderground v.1.15,2013-02-02 07:00:00,
2013-02-02 03:10:00,13.7,5.4,30.01,South,189,3.0,3.0,69,0.00,,,0.00,Wunderground v.1.15,2013-02-02 07:10:00,
2013-02-02 03:20:00,13.8,5.2,30.02,SW,219,3.0,3.0,68,0.00,,,0.00,Wunderground v.1.15,2013-02-02 07:20:00,
2013-02-02 03:30:00,13.6,5.0,30.01,SW,222,2.0,22.0,68,0.00,,,0.00,Wunderground v.1.15,2013-02-02 07:30:00,
2013-02-02 03:40:00,13.4,4.8,30.02,West,277,2.0,22.0,68,0.00,,,0.00,Wunderground v.1.15,2013-02-02 07:40:00,
2013-02-02 03:50:00,13.3,5.0,30.02,WNW,283,4.0,4.0,69,0.00,,,0.00,Wunderground v.1.15,2013-02-02 07:50:00,
2013-02-02 04:00:00,13.2,4.9,30.02,WNW,283,3.0,22.0,69,0.00,,,0.00,Wunderground v.1.15,2013-02-02 08:00:00,
2013-02-02 04:10:00,13.1,4.8,30.02,SW,231,3.0,22.0,69,0.00,,,0.00,Wunderground v.1.15,2013-02-02 08:10:00,
2013-02-02 04:20:00,13.0,5.4,30.03,WSW,257,3.0,22.0,71,0.00,,,0.00,Wunderground v.1.15,2013-02-02 08:20:00,
2013-02-02 04:30:00,12.9,5.6,30.04,West,273,2.0,2.0,72,0.00,,,0.00,Wunderground v.1.15,2013-02-02 08:30:00,
2013-02-02 04:40:00,12.8,5.8,30.06,SSW,204,3.0,22.0,73,0.00,,,0.00,Wunderground v.1.15,2013-02-02 08:40:00,
2013-02-02 04:50:00,12.6,6.2,30.06,WSW,256,3.0,22.0,75,0.00,,,0.00,Wunderground v.1.15,2013-02-02 08:50:00,
2013-02-02 05:00:00,12.4,6.6,30.07,SW,224,3.0,22.0,77,0.00,,,0.00,Wunderground v.1.15,2013-02-02 09:00:00,
2013-02-02 05:10:00,12.0,6.5,30.07,WNW,288,2.0,22.0,78,0.00,,,0.00,Wunderground v.1.15,2013-02-02 09:10:00,
2013-02-02 05:20:00,11.8,6.8,30.08,WSW,245,3.0,3.0,80,0.00,,,0.00,Wunderground v.1.15,2013-02-02 09:20:00,
2013-02-02 05:30:00,11.4,6.7,30.08,WSW,242,3.0,3.0,81,0.00,,,0.00,Wunderground v.1.15,2013-02-02 09:30:00,
2013-02-02 05:40:00,11.3,6.9,30.09,SW,222,2.0,2.0,82,0.00,,,0.00,Wunderground v.1.15,2013-02-02 09:40:00,
2013-02-02 05:50:00,11.1,6.9,30.09,West,279,3.0,3.0,83,0.00,,,0.00,Wunderground v.1.15,2013-02-02 09:50:00,
2013-02-02 06:00:00,10.9,6.8,30.09,South,191,2.0,22.0,83,0.00,,,0.00,Wunderground v.1.15,2013-02-02 10:00:00,
2013-02-02 06:10:00,10.8,6.9,30.10,WNW,283,2.0,2.0,84,0.00,,,0.00,Wunderground v.1.15,2013-02-02 10:10:00,
2013-02-02 06:20:00,10.4,6.3,30.10,WSW,252,3.0,3.0,83,0.00,,,0.00,Wunderground v.1.15,2013-02-02 10:20:00,
2013-02-02 06:30:00,10.0,5.6,30.11,WSW,255,2.0,22.0,82,0.00,,,0.00,Wunderground v.1.15,2013-02-02 10:30:00,
2013-02-02 06:40:00,9.8,5.4,30.11,SW,229,2.0,2.0,82,0.00,,,0.00,Wunderground v.1.15,2013-02-02 10:40:00,
2013-02-02 06:50:00,9.4,4.7,30.12,SSW,212,2.0,22.0,81,0.00,,,0.00,Wunderground v.1.15,2013-02-02 10:50:00,
2013-02-02 07:00:00,9.4,4.5,30.12,West,259,2.0,22.0,80,0.00,,,0.00,Wunderground v.1.15,2013-02-02 11:00:00,
2013-02-02 07:10:00,9.5,4.3,30.13,SW,231,3.0,22.0,79,0.00,,,0.00,Wunderground v.1.15,2013-02-02 11:10:00,
2013-02-02 07:20:00,9.5,4.3,30.13,SW,233,2.0,22.0,79,0.00,,,0.00,Wunderground v.1.15,2013-02-02 11:20:00,
2013-02-02 07:30:00,9.3,3.8,30.13,WSW,245,2.0,22.0,78,0.00,,,0.00,Wunderground v.1.15,2013-02-02 11:30:00,
2013-02-02 07:40:00,9.2,3.7,30.13,SW,228,2.0,2.0,78,0.00,,,0.00,Wunderground v.1.15,2013-02-02 11:40:00,
2013-02-02 07:50:00,9.0,3.5,30.14,SSW,212,2.0,22.0,78,0.00,,,0.00,Wunderground v.1.15,2013-02-02 11:50:00,
2013-02-02 08:00:00,8.8,3.6,30.14,WSW,243,2.0,22.0,79,0.00,,,0.00,Wunderground v.1.15,2013-02-02 12:00:00,
2013-02-02 08:10:00,8.9,3.7,30.15,WSW,242,3.0,3.0,79,0.00,,,0.00,Wunderground v.1.15,2013-02-02 12:10:00,
2013-02-02 08:20:00,9.2,4.0,30.16,WSW,257,2.0,22.0,79,0.00,,,0.00,Wunderground v.1.15,2013-02-02 12:20:00,
2013-02-02 08:30:00,9.2,4.0,30.16,West,274,3.0,22.0,79,0.00,,,0.00,Wunderground v.1.15,2013-02-02 12:30:00,
2013-02-02 08:40:00,9.2,4.0,30.16,WSW,238,3.0,3.0,79,0.00,,,0.00,Wunderground v.1.15,2013-02-02 12:40:00,
2013-02-02 08:50:00,9.3,3.8,30.17,SSW,203,3.0,3.0,78,0.00,,,0.00,Wunderground v.1.15,2013-02-02 12:50:00,
2013-02-02 09:00:00,9.4,3.9,30.17,West,262,2.0,2.0,78,0.00,,,0.00,Wunderground v.1.15,2013-02-02 13:00:00,
2013-02-02 09:10:00,9.3,3.5,30.17,NW,313,4.0,4.0,77,0.00,,,0.00,Wunderground v.1.15,2013-02-02 13:10:00,
2013-02-02 09:20:00,9.2,3.2,30.18,WSW,239,3.0,3.0,76,0.00,,,0.00,Wunderground v.1.15,2013-02-02 13:20:00,
2013-02-02 09:30:00,9.4,3.4,30.18,SW,219,3.0,3.0,76,0.00,,,0.00,Wunderground v.1.15,2013-02-02 13:30:00,
2013-02-02 09:40:00,9.5,2.9,30.19,SW,236,4.0,22.0,74,0.00,,,0.00,Wunderground v.1.15,2013-02-02 13:40:00,
2013-02-02 09:50:00,9.6,2.7,30.19,NW,311,4.0,4.0,73,0.00,,,0.00,Wunderground v.1.15,2013-02-02 13:50:00,
2013-02-02 10:00:00,10.4,3.2,30.19,WSW,246,4.0,4.0,72,0.00,,,0.00,Wunderground v.1.15,2013-02-02 14:00:00,
2013-02-02 10:10:00,11.1,3.2,30.19,WSW,249,4.0,22.0,70,0.00,,,0.00,Wunderground v.1.15,2013-02-02 14:10:00,
2013-02-02 10:20:00,11.2,3.0,30.19,West,276,3.0,3.0,69,0.00,,,0.00,Wunderground v.1.15,2013-02-02 14:20:00,
2013-02-02 10:30:00,11.4,2.9,30.19,SSW,195,4.0,4.0,68,0.00,,,0.00,Wunderground v.1.15,2013-02-02 14:30:00,
2013-02-02 10:40:00,11.7,2.8,30.19,WNW,289,3.0,3.0,67,0.00,,,0.00,Wunderground v.1.15,2013-02-02 14:40:00,
2013-02-02 10:50:00,12.0,2.8,30.19,WSW,239,3.0,22.0,66,0.00,,,0.00,Wunderground v.1.15,2013-02-02 14:50:00,
2013-02-02 11:00:00,12.0,2.8,30.18,WSW,245,3.0,3.0,66,0.00,,,0.00,Wunderground v.1.15,2013-02-02 15:00:00,
2013-02-02 11:10:00,12.4,2.5,30.19,WSW,246,3.0,3.0,64,0.00,,,0.00,Wunderground v.1.15,2013-02-02 15:10:00,
2013-02-02 11:20:00,12.1,2.6,30.19,West,259,5.0,5.0,65,0.00,,,0.00,Wunderground v.1.15,2013-02-02 15:20:00,
2013-02-02 11:30:00,12.6,3.1,30.20,WSW,249,3.0,22.0,65,0.00,,,0.00,Wunderground v.1.15,2013-02-02 15:30:00,
2013-02-02 11:40:00,13.0,2.8,30.19,SSW,203,3.0,22.0,63,0.00,,,0.00,Wunderground v.1.15,2013-02-02 15:40:00,
2013-02-02 11:50:00,13.2,3.3,30.19,West,274,3.0,22.0,64,0.00,,,0.00,Wunderground v.1.15,2013-02-02 15:50:00,
2013-02-02 12:00:00,12.8,2.2,30.19,WSW,245,5.0,22.0,62,0.00,,,0.00,Wunderground v.1.15,2013-02-02 16:00:00,
2013-02-02 12:10:00,12.6,2.4,30.19,SW,233,4.0,4.0,63,0.00,,,0.00,Wunderground v.1.15,2013-02-02 16:10:00,
2013-02-02 12:20:00,13.2,2.9,30.19,SSW,205,4.0,22.0,63,0.00,,,0.00,Wunderground v.1.15,2013-02-02 16:20:00,
2013-02-02 12:30:00,13.8,2.8,30.19,WNW,290,4.0,22.0,61,0.00,,,0.00,Wunderground v.1.15,2013-02-02 16:30:00,
2013-02-02 12:40:00,13.5,2.5,30.19,West,271,4.0,22.0,61,0.00,,,0.00,Wunderground v.1.15,2013-02-02 16:40:00,
2013-02-02 12:50:00,13.6,3.0,30.19,South,180,4.0,22.0,62,0.00,,,0.00,Wunderground v.1.15,2013-02-02 16:50:00,
2013-02-02 13:00:00,13.4,3.5,30.19,SSW,195,5.0,5.0,64,0.00,,,0.00,Wunderground v.1.15,2013-02-02 17:00:00,
2013-02-02 13:10:00,13.2,2.9,30.19,SSW,193,6.0,22.0,63,0.00,,,0.00,Wunderground v.1.15,2013-02-02 17:10:00,
2013-02-02 13:20:00,12.9,2.0,30.19,SW,236,5.0,5.0,61,0.00,,,0.00,Wunderground v.1.15,2013-02-02 17:20:00,
2013-02-02 13:30:00,13.4,2.4,30.20,SSW,211,4.0,22.0,61,0.00,,,0.00,Wunderground v.1.15,2013-02-02 17:30:00,
2013-02-02 13:40:00,13.4,2.8,30.20,SSW,210,5.0,22.0,62,0.00,,,0.00,Wunderground v.1.15,2013-02-02 17:40:00,
2013-02-02 13:50:00,13.0,2.4,30.20,WSW,240,6.0,6.0,62,0.00,,,0.00,Wunderground v.1.15,2013-02-02 17:50:00,
2013-02-02 14:00:00,13.3,1.6,30.20,SSW,205,5.0,22.0,59,0.00,,,0.00,Wunderground v.1.15,2013-02-02 18:00:00,
2013-02-02 14:10:00,13.5,2.9,30.20,South,187,4.0,22.0,62,0.00,,,0.00,Wunderground v.1.15,2013-02-02 18:10:00,
2013-02-02 14:20:00,13.7,2.4,30.20,South,176,4.0,22.0,60,0.00,,,0.00,Wunderground v.1.15,2013-02-02 18:20:00,
2013-02-02 14:30:00,13.8,2.1,30.20,SSW,200,5.0,22.0,59,0.00,,,0.00,Wunderground v.1.15,2013-02-02 18:30:00,
2013-02-02 14:40:00,14.0,2.7,30.21,SW,225,4.0,22.0,60,0.00,,,0.00,Wunderground v.1.15,2013-02-02 18:40:00,
2013-02-02 14:50:00,14.1,1.6,30.21,South,177,5.0,5.0,57,0.00,,,0.00,Wunderground v.1.15,2013-02-02 18:50:00,
2013-02-02 15:00:00,14.4,1.5,30.21,SW,233,4.0,4.0,56,0.00,,,0.00,Wunderground v.1.15,2013-02-02 19:00:00,
2013-02-02 15:10:00,14.7,1.8,30.21,SSW,204,4.0,22.0,56,0.00,,,0.00,Wunderground v.1.15,2013-02-02 19:10:00,
2013-02-02 15:20:00,14.6,0.5,30.22,SW,226,4.0,4.0,53,0.00,,,0.00,Wunderground v.1.15,2013-02-02 19:20:00,
2013-02-02 15:30:00,15.1,0.6,30.22,SW,229,3.0,3.0,52,0.00,,,0.00,Wunderground v.1.15,2013-02-02 19:30:00,
2013-02-02 15:40:00,15.2,1.1,30.22,WNW,289,3.0,3.0,53,0.00,,,0.00,Wunderground v.1.15,2013-02-02 19:40:00,
2013-02-02 15:50:00,15.0,0.9,30.23,WSW,245,5.0,22.0,53,0.00,,,0.00,Wunderground v.1.15,2013-02-02 19:50:00,
2013-02-02 16:00:00,15.1,1.0,30.23,West,273,4.0,4.0,53,0.00,,,0.00,Wunderground v.1.15,2013-02-02 20:00:00,
2013-02-02 16:10:00,14.9,1.6,30.23,SSW,193,4.0,22.0,55,0.00,,,0.00,Wunderground v.1.15,2013-02-02 20:10:00,
2013-02-02 16:20:00,14.8,1.1,30.23,SE,137,2.0,22.0,54,0.00,,,0.00,Wunderground v.1.15,2013-02-02 20:20:00,
2013-02-02 16:30:00,14.9,1.2,30.24,SSW,211,5.0,5.0,54,0.00,,,0.00,Wunderground v.1.15,2013-02-02 20:30:00,
2013-02-02 16:40:00,14.8,1.1,30.24,SSW,211,4.0,4.0,54,0.00,,,0.00,Wunderground v.1.15,2013-02-02 20:40:00,
2013-02-02 16:50:00,14.2,1.0,30.24,WSW,240,3.0,3.0,55,0.00,,,0.00,Wunderground v.1.15,2013-02-02 20:50:00,
2013-02-02 17:00:00,13.9,1.1,30.24,SW,214,3.0,22.0,56,0.00,,,0.00,Wunderground v.1.15,2013-02-02 21:00:00,
2013-02-02 17:10:00,13.6,1.2,30.25,WSW,238,3.0,22.0,57,0.00,,,0.00,Wunderground v.1.15,2013-02-02 21:10:00,
2013-02-02 17:20:00,13.3,1.6,30.25,SSW,204,2.0,2.0,59,0.00,,,0.00,Wunderground v.1.15,2013-02-02 21:20:00,
2013-02-02 17:30:00,12.9,1.6,30.25,SW,234,0.0,22.0,60,0.00,,,0.00,Wunderground v.1.15,2013-02-02 21:30:00,
2013-02-02 17:40:00,12.6,1.7,30.25,SSW,212,1.0,22.0,61,0.00,,,0.00,Wunderground v.1.15,2013-02-02 21:40:00,
2013-02-02 17:50:00,12.5,1.9,30.26,SSW,200,1.0,22.0,62,0.00,,,0.00,Wunderground v.1.15,2013-02-02 21:50:00,
2013-02-02 18:00:00,12.3,1.7,30.27,SSW,200,1.0,22.0,62,0.00,,,0.00,Wunderground v.1.15,2013-02-02 22:00:00,
2013-02-02 18:10:00,12.3,1.7,30.27,SW,233,0.0,22.0,62,0.00,,,0.00,Wunderground v.1.15,2013-02-02 22:10:00,
2013-02-02 18:20:00,12.4,2.5,30.27,SSW,211,0.0,22.0,64,0.00,,,0.00,Wunderground v.1.15,2013-02-02 22:20:00,
2013-02-02 18:30:00,12.6,3.4,30.28,SSE,153,0.0,22.0,66,0.00,,,0.00,Wunderground v.1.15,2013-02-02 22:30:00,
2013-02-02 18:40:00,12.8,3.2,30.28,SSW,211,0.0,22.0,65,0.00,,,0.00,Wunderground v.1.15,2013-02-02 22:40:00,
2013-02-02 18:50:00,13.0,3.4,30.28,SW,228,0.0,22.0,65,0.00,,,0.00,Wunderground v.1.15,2013-02-02 22:50:00,
2013-02-02 19:00:00,13.1,3.2,30.29,SW,219,0.0,22.0,64,0.00,,,0.00,Wunderground v.1.15,2013-02-02 23:00:00,
2013-02-02 19:10:00,13.2,3.3,30.30,SSW,205,1.0,1.0,64,0.00,,,0.00,Wunderground v.1.15,2013-02-02 23:10:00,
2013-02-02 19:20:00,12.8,3.6,30.30,SW,225,0.0,22.0,66,0.00,,,0.00,Wunderground v.1.15,2013-02-02 23:20:00,
2013-02-02 19:30:00,12.4,3.2,30.30,SSW,201,0.0,22.0,66,0.00,,,0.00,Wunderground v.1.15,2013-02-02 23:30:00,
2013-02-02 19:40:00,12.2,3.0,30.31,SW,235,0.0,22.0,66,0.00,,,0.00,Wunderground v.1.15,2013-02-02 23:40:00,
2013-02-02 19:50:00,11.9,3.4,30.31,SSW,204,0.0,22.0,68,0.00,,,0.00,Wunderground v.1.15,2013-02-02 23:50:00,
2013-02-02 20:00:00,11.5,3.3,30.32,SW,220,0.0,22.0,69,0.00,,,0.00,Wunderground v.1.15,2013-02-03 00:00:00,
2013-02-02 20:10:00,11.5,3.6,30.32,WSW,237,0.0,22.0,70,0.00,,,0.00,Wunderground v.1.15,2013-02-03 00:10:00,
2013-02-02 20:20:00,11.3,3.4,30.32,SSW,194,0.0,22.0,70,0.00,,,0.00,Wunderground v.1.15,2013-02-03 00:20:00,
2013-02-02 20:30:00,11.4,3.5,30.33,SSE,158,0.0,22.0,70,0.00,,,0.00,Wunderground v.1.15,2013-02-03 00:30:00,
2013-02-02 20:40:00,11.6,3.7,30.33,SSW,212,1.0,1.0,70,0.00,,,0.00,Wunderground v.1.15,2013-02-03 00:40:00,
2013-02-02 20:50:00,11.3,3.7,30.34,SW,224,0.0,22.0,71,0.00,,,0.00,Wunderground v.1.15,2013-02-03 00:50:00,
2013-02-02 21:00:00,11.1,3.8,30.34,SSW,207,0.0,22.0,72,0.00,,,0.00,Wunderground v.1.15,2013-02-03 01:00:00,
2013-02-02 21:10:00,10.9,3.3,30.34,SSW,200,0.0,22.0,71,0.00,,,0.00,Wunderground v.1.15,2013-02-03 01:10:00,
2013-02-02 21:20:00,10.9,3.0,30.34,SW,225,1.0,1.0,70,0.00,,,0.00,Wunderground v.1.15,2013-02-03 01:20:00,
2013-02-02 21:30:00,10.8,3.2,30.35,SW,225,1.0,1.0,71,0.00,,,0.00,Wunderground v.1.15,2013-02-03 01:30:00,
2013-02-02 21:40:00,10.7,2.5,30.35,SW,228,0.0,22.0,69,0.00,,,0.00,Wunderground v.1.15,2013-02-03 01:40:00,
2013-02-02 21:50:00,10.6,2.4,30.35,SW,231,0.0,22.0,69,0.00,,,0.00,Wunderground v.1.15,2013-02-03 01:50:00,
2013-02-02 22:00:00,10.3,2.4,30.35,SW,226,0.0,22.0,70,0.00,,,0.00,Wunderground v.1.15,2013-02-03 02:00:00,
2013-02-02 22:10:00,10.4,2.5,30.35,SW,218,0.0,22.0,70,0.00,,,0.00,Wunderground v.1.15,2013-02-03 02:10:00,
2013-02-02 22:20:00,10.7,2.8,30.35,South,181,0.0,22.0,70,0.00,,,0.00,Wunderground v.1.15,2013-02-03 02:20:00,
2013-02-02 22:30:00,11.0,3.7,30.36,South,175,0.0,22.0,72,0.00,,,0.00,Wunderground v.1.15,2013-02-03 02:30:00,
2013-02-02 22:40:00,11.3,3.1,30.36,SSW,193,0.0,22.0,69,0.00,,,0.00,Wunderground v.1.15,2013-02-03 02:40:00,
2013-02-02 22:50:00,11.7,3.2,30.37,SW,226,0.0,22.0,68,0.00,,,0.00,Wunderground v.1.15,2013-02-03 02:50:00,
2013-02-02 23:00:00,11.8,3.3,30.37,SSW,205,0.0,22.0,68,0.00,,,0.00,Wunderground v.1.15,2013-02-03 03:00:00,
2013-02-02 23:10:00,11.9,3.4,30.37,SSW,205,0.0,22.0,68,0.00,,,0.00,Wunderground v.1.15,2013-02-03 03:10:00,
2013-02-02 23:20:00,12.0,3.5,30.37,WSW,243,0.0,22.0,68,0.00,,,0.00,Wunderground v.1.15,2013-02-03 03:20:00,
2013-02-02 23:30:00,12.2,3.6,30.38,WSW,237,0.0,22.0,68,0.00,,,0.00,Wunderground v.1.15,2013-02-03 03:30:00,
2013-02-02 23:40:00,12.6,3.7,30.38,SSW,212,1.0,22.0,67,0.00,,,0.00,Wunderground v.1.15,2013-02-03 03:40:00,
2013-02-02 23:50:00,12.8,3.6,30.39,South,187,1.0,1.0,66,0.00,,,0.00,Wunderground v.1.15,2013-02-03 03:50:00,